Flag for U.S.A. Weather past 2 weeks in Augusta, Georgia, U.S.A.

Now
41 °F

Clear.


Feels Like: 38 °F
Forecast: 30 / 58 °F
Wind: 5 mph from Southeast

Location: Daniel Field

Current Time: Jan 29, 2015 at 12:15:20 AM

Latest Report: Jan 28, 2015 at 11:53 PM


Visibility: 10 mi

Pressure: 30.34 "Hg

Humidity: 47%

Dew point: 22 °F

Location of AugustaLocation

Historic Weather in Augusta — Graph

°F

Augusta temperature yesterday

Maximum temperature yesterday: 50 °F (at 5:53 PM)
Minimum temperature yesterday: 32 °F (at 5:53 AM)
Average temperature yesterday: 40 °F

Past Weeks' High & Low Weather Summary

 TemperatureHumidityPressure
High70 °F (Jan 21, 2:53 PM)100% (Jan 13, 11:53 PM)30.34 "Hg (Jan 13, 11:53 PM)
Low32 °F (Jan 28, 5:53 AM)17% (Jan 19, 2:53 PM)29.65 "Hg (Jan 24, 3:53 AM)
Average49 °F61%30.05 "Hg
* Reported Jan 13 10:53 PM — Jan 28 10:53 PM, Augusta, Weather by CustomWeather, © 2014

Note: Actual official high and low records may vary slightly from our data, if they occured in-between our weather recording intervals... More about our weather records

Advertising

Augusta weather history for previous 24 hours

 ConditionsComfort  
Time TempWeatherWind HumidityBarometerVisibility
10:53 PM
Jan 28
42 °FClear.5 mph45%30.33 "Hg10 mi
9:53 PM43 °FClear.5 mph43%30.32 "Hg10 mi
8:53 PM44 °FClear.5 mph40%30.31 "Hg10 mi
7:53 PM46 °FCool.No wind34%30.30 "Hg10 mi
5:53 PM50 °FSunny.No wind26%30.27 "Hg10 mi
12:53 PM48 °FSunny.7 mph22%30.27 "Hg10 mi
11:53 AM48 °FSunny.6 mph23%30.29 "Hg10 mi
10:53 AM44 °FSunny.10 mph31%30.29 "Hg10 mi
9:53 AM40 °FSunny.10 mph47%30.29 "Hg10 mi
8:53 AM36 °FSunny.8 mph57%30.27 "Hg10 mi
7:53 AM34 °FSunny.5 mph67%30.23 "Hg10 mi
6:53 AM32 °FClear.5 mph79%30.20 "Hg10 mi
5:53 AM32 °FClear.3 mph79%30.16 "Hg10 mi
4:53 AM34 °FClear.5 mph76%30.13 "Hg10 mi
3:53 AM35 °FClear.3 mph72%30.11 "Hg10 mi
2:53 AM36 °FClear.3 mph73%30.09 "Hg10 mi
1:53 AM36 °FClear.No wind73%30.08 "Hg10 mi
12:53 AM38 °FClear.No wind68%30.07 "Hg10 mi
Weather by CustomWeather, © 2014

See weather overviewHow to use our weather pages